GW3250 Weather Reports


time (UTC)temp
C
wind
direction
speed
KPH
gust
KPH
rain 1hr
cm
rain 24hr
cm
rain mn
cm
humidity
%
barometer
mb
20260831175038 21 115 0.0 0.0 0.00 0.00 0.00 90 1018.9
20260831174532 21 115 0.0 0.0 0.00 0.00 0.00 89 1018.9
20260831174026 21 115 0.0 0.0 0.00 0.00 0.00 90 1018.7
20260831173525 21 115 0.0 0.0 0.00 0.00 0.00 88 1018.9
20260831173021 21 115 0.0 0.0 0.00 0.00 0.00 88 1018.7
20260831172516 21 120 1.6 1.6 0.00 0.00 0.00 87 1018.9
20260831172011 22 153 0.0 0.0 0.00 0.00 0.00 86 1018.7
20260831171507 21 121 1.6 1.6 0.00 0.00 0.00 87 1018.7
20260831171004 21 132 0.0 1.6 0.00 0.00 0.00 87 1018.9
20260831170459 21 132 0.0 0.0 0.00 0.00 0.00 89 1018.6
20260831165956 21 132 0.0 0.0 0.00 0.00 0.00 90 1019.0
20260831165456 21 132 0.0 1.6 0.00 0.00 0.00 89 1019.1
20260831164953 21 132 0.0 0.0 0.00 0.00 0.00 90 1019.0
20260831164449 21 132 0.0 0.0 0.00 0.00 0.00 89 1018.7
20260831163944 21 134 0.0 0.0 0.00 0.00 0.00 91 1019.0
20260831163439 21 134 0.0 0.0 0.00 0.00 0.00 91 1019.1
20260831161632 21 130 0.0 0.0 0.00 0.00 0.00 85 1019.3
20260831161128 21 130 0.0 0.0 0.00 0.00 0.00 85 1019.3
20260831160626 21 130 0.0 0.0 0.00 0.00 0.00 84 1019.2
20260831160122 21 130 0.0 1.6 0.00 0.00 0.00 86 1019.1
20260831154858 21 146 0.0 0.0 0.00 0.00 0.00 87 1019.1
20260831154355 21 146 0.0 0.0 0.00 0.00 0.00 87 1019.1
20260831153852 21 131 0.0 0.0 0.00 0.00 0.00 86 1019.1
20260831151520 21 194 1.6 1.6 0.00 0.00 0.00 86 1019.2
20260831151020 21 194 1.6 1.6 0.00 0.00 0.00 86 1019.2
20260831150515 21 224 3.2 4.8 0.00 0.00 0.00 86 1019.4
20260831150011 21 131 1.6 3.2 0.00 0.00 0.00 86 1019.2
20260831145505 21 193 0.0 1.6 0.00 0.00 0.00 85 1019.3
20260831145001 21 129 0.0 1.6 0.00 0.00 0.00 85 1019.3
20260831144456 21 165 0.0 0.0 0.00 0.00 0.00 85 1019.3
20260831143952 20 164 0.0 0.0 0.00 0.00 0.00 90 1019.2
20260831143446 20 209 0.0 1.6 0.00 0.00 0.00 88 1019.4
20260831142942 20 209 0.0 0.0 0.00 0.00 0.00 89 1019.4
20260831142438 20 209 0.0 1.6 0.00 0.00 0.00 90 1019.6
20260831141937 20 209 0.0 1.6 0.00 0.00 0.00 90 1019.3
20260831141432 20 208 0.0 0.0 0.00 0.00 0.00 89 1019.3
20260831140927 20 208 0.0 1.6 0.00 0.00 0.00 89 1019.3
20260831140426 20 204 0.0 1.6 0.00 0.00 0.00 90 1019.0
20260831135926 20 200 0.0 1.6 0.00 0.00 0.00 90 1019.3
20260831135425 19 200 0.0 0.0 0.00 0.00 0.00 93 1019.5
20260831134920 19 186 1.6 3.2 0.00 0.00 0.00 93 1019.5
20260831134417 19 167 0.0 0.0 0.00 0.00 0.00 93 1019.3
20260831133916 18 187 0.0 1.6 0.00 0.00 0.00 94 1019.2
20260831133411 18 167 0.0 0.0 0.00 0.00 0.00 95 1019.4
20260831132906 18 204 1.6 3.2 0.00 0.00 0.00 95 1019.3
20260831132401 18 212 3.2 3.2 0.00 0.00 0.00 95 1019.2
20260831131901 18 198 1.6 1.6 0.00 0.00 0.00 97 1019.0
20260831131356 18 195 1.6 1.6 0.00 0.00 0.00 97 1019.3
20260831130852 18 191 1.6 1.6 0.00 0.00 0.00 96 1019.3
20260831130348 18 107 0.0 1.6 0.00 0.00 0.00 95 1019.2
20260831125846 18 177 0.0 0.0 0.00 0.00 0.00 96 1019.0
20260831125342 17 177 1.6 1.6 0.00 0.00 0.00 97 1019.1
20260831124842 17 170 0.0 1.6 0.00 0.00 0.00 96 1019.3
20260831124339 17 170 0.0 0.0 0.00 0.00 0.00 98 1019.5
20260831123838 17 198 0.0 0.0 0.00 0.00 0.00 99 1019.5
20260831123337 17 198 0.0 0.0 0.00 0.00 0.00 99 1019.3
20260831122832 16 198 0.0 0.0 0.00 0.00 0.00 99 1019.3
20260831122328 16 198 0.0 0.0 0.00 0.00 0.00 99 1019.3
20260831121828 16 198 0.0 0.0 0.00 0.00 0.00 99 1019.4
20260831121324 16 185 1.6 1.6 0.00 0.00 0.00 99 1019.4
20260831120820 16 184 0.0 0.0 0.00 0.00 0.00 99 1019.2
20260831120314 16 175 1.6 1.6 0.00 0.00 0.00 99 1019.1
20260831115809 16 174 0.0 0.0 0.00 0.00 0.00 99 1019.3
20260831115306 16 174 0.0 0.0 0.00 0.00 0.00 99 1019.0
20260831114804 16 174 0.0 0.0 0.00 0.00 0.00 99 1019.2
20260831114304 16 174 0.0 0.0 0.00 0.00 0.00 99 1019.0
20260831113800 16 174 0.0 0.0 0.00 0.00 0.00 99 1019.1
20260831113259 16 174 0.0 0.0 0.00 0.00 0.00 99 1018.6
20260831112754 16 174 0.0 0.0 0.00 0.00 0.00 99 1019.3
20260831112249 16 174 0.0 0.0 0.00 0.00 0.00 99 1018.9
20260831111745 16 174 0.0 0.0 0.00 0.00 0.00 99 1018.9
20260831111241 16 174 0.0 0.0 0.00 0.00 0.00 99 1018.7
20260831110737 16 174 0.0 0.0 0.00 0.00 0.00 99 1018.6
20260831110232 16 174 0.0 0.0 0.00 0.00 0.00 99 1018.6
20260831105730 15 174 0.0 0.0 0.00 0.00 0.00 99 1018.6
20260831105226 16 174 0.0 0.0 0.00 0.00 0.00 99 1018.5
20260831104721 16 174 0.0 0.0 0.00 0.00 0.00 99 1018.3
20260831104218 16 174 1.6 3.2 0.00 0.00 0.00 99 1018.5
20260831103717 16 174 1.6 1.6 0.00 0.00 0.00 99 1018.3
20260831103213 16 173 0.0 0.0 0.00 0.00 0.00 99 1018.1
20260831102712 16 173 0.0 1.6 0.00 0.00 0.00 99 1018.0
20260831102208 16 173 0.0 0.0 0.00 0.00 0.00 99 1018.1
20260831101703 16 173 0.0 0.0 0.00 0.00 0.00 99 1018.2
20260831101158 16 173 0.0 0.0 0.00 0.00 0.00 99 1018.2
20260831100654 16 173 0.0 0.0 0.00 0.00 0.00 99 1018.2
20260831100150 16 173 1.6 1.6 0.00 0.00 0.00 99 1018.2
20260831095648 16 178 0.0 1.6 0.00 0.00 0.00 99 1018.2
20260831095143 16 178 0.0 0.0 0.00 0.00 0.00 99 1018.2
20260831094638 16 178 0.0 0.0 0.00 0.00 0.00 99 1018.1
20260831094135 16 178 0.0 0.0 0.00 0.00 0.00 99 1018.2
20260831093630 16 178 0.0 0.0 0.00 0.00 0.00 99 1018.3
20260831093126 16 178 0.0 0.0 0.00 0.00 0.00 99 1018.1
20260831092622 16 178 0.0 0.0 0.00 0.00 0.00 99 1018.1
20260831092117 16 179 1.6 1.6 0.00 0.00 0.00 99 1018.1
20260831091617 16 164 0.0 0.0 0.00 0.00 0.00 99 1018.0
20260831091112 16 164 0.0 0.0 0.00 0.00 0.00 99 1018.3
20260831090608 16 164 0.0 0.0 0.00 0.00 0.00 99 1018.2
20260831090104 16 164 0.0 0.0 0.00 0.00 0.00 99 1018.2
20260831085559 16 164 0.0 0.0 0.00 0.00 0.00 99 1018.2
20260831085054 16 164 0.0 0.0 0.00 0.00 0.00 99 1018.3
20260831084550 16 164 0.0 0.0 0.00 0.00 0.00 99 1018.1
20260831084046 16 164 0.0 0.0 0.00 0.00 0.00 99 1018.3
20260831083541 16 164 0.0 0.0 0.00 0.00 0.00 99 1018.1
20260831083036 16 164 0.0 0.0 0.00 0.00 0.00 99 1018.1
20260831082529 16 164 0.0 0.0 0.00 0.00 0.00 99 1018.3
20260831082024 17 164 0.0 0.0 0.00 0.00 0.00 99 1018.4
20260831081520 17 164 0.0 0.0 0.00 0.00 0.00 99 1018.2
20260831081016 17 164 0.0 0.0 0.00 0.00 0.00 98 1018.3
20260831080510 17 164 0.0 0.0 0.00 0.00 0.00 98 1018.0
20260831080007 17 164 0.0 0.0 0.00 0.00 0.00 98 1018.0
20260831075501 17 164 0.0 0.0 0.00 0.00 0.00 98 1018.0
20260831074957 17 164 0.0 0.0 0.00 0.00 0.00 98 1018.1
20260831074456 17 164 0.0 0.0 0.00 0.00 0.00 97 1018.2
20260831073951 17 164 0.0 0.0 0.00 0.00 0.00 98 1018.0
20260831073450 17 164 0.0 0.0 0.00 0.00 0.00 98 1017.9
20260831072949 17 164 0.0 0.0 0.00 0.00 0.00 97 1018.1
20260831072445 17 164 0.0 0.0 0.00 0.00 0.00 97 1017.9
20260831071942 17 164 0.0 0.0 0.00 0.00 0.00 97 1018.1
20260831071441 17 164 0.0 0.0 0.00 0.00 0.00 97 1018.2
20260831070935 17 165 0.0 0.0 0.00 0.00 0.00 97 1018.2
20260831070430 17 165 0.0 0.0 0.00 0.00 0.00 97 1018.2
20260831065929 17 165 0.0 0.0 0.00 0.00 0.00 97 1018.0
20260831065427 17 165 0.0 0.0 0.00 0.00 0.00 98 1018.0
20260831064922 17 165 0.0 0.0 0.00 0.00 0.00 98 1017.9
20260831064417 17 165 0.0 0.0 0.00 0.00 0.00 98 1018.0
20260831063913 17 165 0.0 0.0 0.00 0.00 0.00 98 1018.2
20260831063408 17 165 0.0 0.0 0.00 0.00 0.00 98 1018.2
20260831062902 17 165 0.0 0.0 0.00 0.00 0.00 98 1018.2
20260831062357 17 165 0.0 0.0 0.00 0.00 0.00 99 1018.0
20260831061855 17 165 0.0 0.0 0.00 0.00 0.00 99 1018.0
20260831061349 17 165 0.0 0.0 0.00 0.00 0.00 99 1018.2
20260831060846 17 165 0.0 0.0 0.00 0.00 0.00 99 1018.1
20260831060345 17 165 0.0 0.0 0.00 0.00 0.00 99 1018.2
20260831055839 17 165 0.0 0.0 0.00 0.00 0.00 99 1018.2
20260831055335 17 165 0.0 0.0 0.00 0.00 0.00 99 1018.3
20260831054830 17 165 0.0 0.0 0.00 0.00 0.00 99 1018.3
20260831054325 17 165 0.0 0.0 0.00 0.00 0.00 99 1018.3
20260831053823 17 165 0.0 0.0 0.00 0.00 0.00 99 1018.1
20260831053317 17 165 0.0 0.0 0.00 0.00 0.00 98 1018.2
20260831052812 17 165 0.0 0.0 0.00 0.00 0.00 98 1018.3
20260831052311 17 165 0.0 0.0 0.00 0.00 0.00 98 1018.0
20260831051809 17 165 0.0 0.0 0.00 0.00 0.00 98 1018.2
20260831051308 17 165 0.0 0.0 0.00 0.00 0.00 98 1018.1
20260831050803 17 165 0.0 0.0 0.00 0.00 0.00 97 1018.3
20260831050301 17 165 0.0 0.0 0.00 0.00 0.00 97 1018.2
20260831045750 17 165 0.0 0.0 0.00 0.00 0.00 97 1018.2
20260831045245 17 165 0.0 0.0 0.00 0.00 0.00 97 1018.0
20260831044740 18 165 0.0 0.0 0.00 0.00 0.00 96 1018.2
20260831044234 18 182 0.0 0.0 0.00 0.00 0.00 97 1018.0
20260831043731 18 182 0.0 0.0 0.00 0.00 0.00 97 1018.3
20260831043231 18 182 1.6 1.6 0.00 0.00 0.00 97 1018.3
20260831042725 18 182 0.0 0.0 0.00 0.00 0.00 96 1018.2
20260831042220 18 194 0.0 0.0 0.00 0.00 0.00 97 1018.2
20260831041715 18 194 0.0 0.0 0.00 0.00 0.00 97 1018.3
20260831041214 18 194 0.0 0.0 0.00 0.00 0.00 97 1018.4
20260831040709 18 194 0.0 0.0 0.00 0.00 0.00 98 1018.2
20260831040208 18 193 0.0 0.0 0.00 0.00 0.00 98 1018.1
20260831035706 18 183 1.6 1.6 0.00 0.00 0.00 98 1018.3
20260831035156 18 195 1.6 1.6 0.00 0.00 0.00 98 1018.5
20260831034655 18 195 0.0 0.0 0.00 0.00 0.00 99 1018.3
20260831034150 18 195 0.0 0.0 0.00 0.00 0.00 98 1018.1
20260831033646 18 195 0.0 0.0 0.00 0.00 0.00 98 1018.2
20260831033140 18 195 1.6 3.2 0.00 0.00 0.00 98 1018.1
20260831032640 18 195 0.0 1.6 0.00 0.00 0.00 98 1018.1
20260831032136 18 195 0.0 0.0 0.00 0.00 0.00 98 1018.4
20260831031636 18 195 0.0 0.0 0.00 0.00 0.00 98 1018.4
20260831031135 18 195 0.0 0.0 0.00 0.00 0.00 98 1018.4
20260831030634 18 195 0.0 0.0 0.00 0.00 0.00 98 1018.0
20260831030133 18 195 0.0 1.6 0.00 0.00 0.00 98 1018.4
20260831025632 18 195 0.0 0.0 0.00 0.00 0.00 99 1018.3
20260831025127 18 195 0.0 1.6 0.00 0.00 0.00 99 1018.1
20260831024623 18 195 0.0 0.0 0.00 0.00 0.00 99 1018.4
20260831024122 18 194 0.0 0.0 0.00 0.00 0.00 98 1018.3
20260831023620 18 194 0.0 0.0 0.00 0.00 0.00 98 1018.4
20260831023120 18 194 0.0 0.0 0.00 0.00 0.00 98 1018.2
20260831022615 18 195 0.0 1.6 0.00 0.00 0.00 98 1018.6
20260831022110 18 195 0.0 0.0 0.00 0.00 0.00 98 1018.4
20260831021609 18 195 0.0 0.0 0.00 0.00 0.00 97 1018.5
20260831021104 18 195 0.0 0.0 0.00 0.00 0.00 97 1018.3
20260831020559 18 195 1.6 1.6 0.00 0.00 0.00 97 1018.6
20260831020054 18 195 0.0 0.0 0.00 0.00 0.00 97 1018.2
20260831015550 18 195 0.0 0.0 0.00 0.00 0.00 96 1018.5
20260831015044 19 195 0.0 0.0 0.00 0.00 0.00 96 1018.3
20260831014539 19 195 0.0 1.6 0.00 0.00 0.00 96 1018.4
20260831014035 19 195 0.0 0.0 0.00 0.00 0.00 96 1018.1
20260831013531 19 195 0.0 1.6 0.00 0.00 0.00 96 1018.4
20260831013025 18 195 0.0 0.0 0.00 0.00 0.00 97 1018.2
20260831012520 18 195 0.0 0.0 0.00 0.00 0.00 97 1018.4
20260831012015 19 195 0.0 0.0 0.00 0.00 0.00 96 1018.3
20260831011514 19 195 0.0 0.0 0.00 0.00 0.00 96 1018.2
20260831011010 19 195 0.0 0.0 0.00 0.00 0.00 96 1018.3
20260831010505 19 195 0.0 0.0 0.00 0.00 0.00 96 1018.0
20260831010002 19 195 0.0 0.0 0.00 0.00 0.00 96 1018.0
20260831005457 19 195 0.0 1.6 0.00 0.00 0.00 96 1018.0
20260831004955 19 195 0.0 0.0 0.00 0.00 0.00 96 1018.2
20260831004452 19 194 0.0 1.6 0.00 0.00 0.00 96 1017.7
20260831003947 19 194 0.0 0.0 0.00 0.00 0.00 95 1017.7
20260831003443 19 194 0.0 0.0 0.00 0.00 0.00 95 1017.9
20260831002942 20 194 0.0 0.0 0.00 0.00 0.00 95 1017.6
20260831002441 20 194 1.6 1.6 0.00 0.00 0.00 95 1017.7
20260831001937 20 194 1.6 1.6 0.00 0.00 0.00 94 1017.6
20260831001427 20 194 1.6 3.2 0.00 0.00 0.00 94 1017.5
20260831000924 20 194 0.0 1.6 0.00 0.00 0.00 94 1017.4
20260831000419 20 186 0.0 1.6 0.00 0.00 0.00 95 1017.5
20260830235912 20 179 0.0 1.6 0.00 0.00 0.00 95 1017.4
20260830235407 20 179 0.0 0.0 0.00 0.00 0.00 95 1017.1
20260830234902 20 179 1.6 1.6 0.00 0.00 0.00 95 1017.2
20260830234357 20 179 1.6 1.6 0.00 0.00 0.00 94 1017.2
20260830233853 20 176 1.6 1.6 0.00 0.00 0.00 94 1017.2
20260830233348 20 184 1.6 1.6 0.00 0.00 0.00 94 1017.0
20260830232844 20 182 0.0 1.6 0.00 0.00 0.00 93 1017.4
20260830232339 20 199 0.0 1.6 0.00 0.00 0.00 93 1017.2
20260830231836 20 175 1.6 1.6 0.00 0.00 0.00 92 1017.1
20260830231336 21 172 1.6 1.6 0.00 0.00 0.00 91 1017.3
20260830230830 21 184 0.0 0.0 0.00 0.00 0.00 92 1016.9
20260830230325 20 197 3.2 4.8 0.00 0.00 0.00 93 1016.9
20260830225819 20 137 0.0 0.0 0.00 0.00 0.00 95 1016.9
20260830225314 20 137 0.0 0.0 0.00 0.00 0.00 95 1016.7
20260830224809 20 137 0.0 0.0 0.00 0.00 0.00 95 1016.8
20260830224303 21 137 0.0 0.0 0.00 0.00 0.00 94 1017.0
20260830223800 21 137 0.0 0.0 0.00 0.00 0.00 92 1017.0
20260830223255 21 137 0.0 0.0 0.00 0.00 0.00 90 1016.8
20260830222749 21 137 1.6 3.2 0.00 0.00 0.00 89 1017.0
20260830222246 21 137 0.0 0.0 0.00 0.00 0.00 89 1016.9
20260830221740 21 137 0.0 0.0 0.00 0.00 0.00 90 1017.0
20260830221238 21 137 1.6 1.6 0.00 0.00 0.00 90 1016.7
20260830220733 21 136 0.0 0.0 0.00 0.00 0.00 91 1016.7
20260830220231 21 136 0.0 0.0 0.00 0.00 0.00 91 1016.8
20260830215730 22 136 0.0 0.0 0.00 0.00 0.00 90 1016.9
20260830215225 21 64 0.0 0.0 0.00 0.00 0.00 90 1016.8
20260830214720 21 64 0.0 0.0 0.00 0.00 0.00 90 1016.9
20260830214215 22 64 0.0 0.0 0.00 0.00 0.00 89 1016.6
20260830213714 22 64 0.0 0.0 0.00 0.00 0.00 88 1016.6
20260830213209 22 58 0.0 0.0 0.00 0.00 0.00 89 1016.7
20260830212700 22 58 0.0 0.0 0.00 0.00 0.00 89 1016.8
20260830212155 22 58 1.6 1.6 0.00 0.00 0.00 87 1016.8
20260830211654 22 58 0.0 1.6 0.00 0.00 0.00 86 1016.5
20260830211153 22 58 0.0 1.6 0.00 0.00 0.00 86 1016.7
20260830210649 22 58 1.6 1.6 0.00 0.00 0.00 86 1016.6
20260830210149 22 59 0.0 1.6 0.00 0.00 0.00 87 1016.6
20260830205646 22 99 1.6 3.2 0.00 0.00 0.00 86 1016.8
20260830205141 22 206 0.0 0.0 0.00 0.00 0.00 88 1016.7
20260830204641 22 206 0.0 0.0 0.00 0.00 0.00 86 1016.8
20260830204140 22 206 1.6 1.6 0.00 0.00 0.00 85 1016.8
20260830203636 23 206 0.0 0.0 0.00 0.00 0.00 85 1016.5
20260830203131 23 196 1.6 1.6 0.00 0.00 0.00 84 1016.9
20260830202631 23 195 0.0 1.6 0.00 0.00 0.00 83 1016.8
20260830202126 23 110 1.6 1.6 0.00 0.00 0.00 83 1016.6
20260830201625 24 151 1.6 1.6 0.00 0.00 0.00 82 1016.6
20260830201121 24 255 0.0 0.0 0.00 0.00 0.00 82 1016.7
20260830200616 23 256 1.6 1.6 0.00 0.00 0.00 83 1016.7
20260830200115 23 256 1.6 1.6 0.00 0.00 0.00 84 1016.7
20260830195611 23 237 1.6 1.6 0.00 0.00 0.00 83 1016.8
20260830195109 23 239 1.6 1.6 0.00 0.00 0.00 83 1016.7
20260830194608 24 156 1.6 1.6 0.00 0.00 0.00 82 1017.0
20260830194103 24 156 0.0 0.0 0.00 0.00 0.00 80 1017.0
20260830193602 24 178 1.6 3.2 0.00 0.00 0.00 79 1016.9
20260830193057 24 175 1.6 3.2 0.00 0.00 0.00 81 1016.8
20260830192553 24 179 3.2 4.8 0.00 0.00 0.00 78 1017.0
20260830192047 23 196 1.6 1.6 0.00 0.00 0.00 84 1017.0
20260830191542 23 195 3.2 4.8 0.00 0.00 0.00 82 1017.0
20260830191037 23 203 3.2 3.2 0.00 0.00 0.00 82 1017.1
20260830190532 23 171 1.6 3.2 0.00 0.00 0.00 81 1017.1
20260830190028 23 179 3.2 3.2 0.00 0.00 0.00 83 1017.2
20260830185521 23 139 1.6 1.6 0.00 0.00 0.00 82 1017.2
20260830185017 24 212 3.2 4.8 0.00 0.00 0.00 82 1017.5
20260830184516 24 70 0.0 0.0 0.00 0.00 0.00 83 1017.4
20260830184012 24 217 3.2 4.8 0.00 0.00 0.00 81 1017.4
20260830183511 25 56 0.0 0.0 0.00 0.00 0.00 83 1017.3
20260830183007 24 212 0.0 1.6 0.00 0.00 0.00 83 1017.3
20260830182502 24 183 1.6 3.2 0.00 0.00 0.00 83 1017.4
20260830181959 25 214 0.0 0.0 0.00 0.00 0.00 83 1017.7
20260830181454 25 214 1.6 3.2 0.00 0.00 0.00 82 1017.5
20260830180948 25 213 1.6 1.6 0.00 0.00 0.00 79 1017.7
20260830180448 25 215 3.2 3.2 0.00 0.00 0.00 80 1017.7
20260830175946 25 179 1.6 1.6 0.00 0.00 0.00 80 1017.8
20260830175441 25 194 0.0 1.6 0.00 0.00 0.00 80 1017.6